Terminal Aerodrome Forecast
Issued by NWS Des Moines, IA

Home | Current Version | Previous Version | Text Only | Print | Product List | Glossary On
Versions: 1 2 3 4 5 6 7 8 9 10 11 12 13 14 15 16 17 18 19 20 21 22 23 24 25 26 27 28 29 30 31 32 33 34 35 36 37 38 39 40 41 42 43 44 45 46 47 48
000
FTUS43 KDMX 220200 AAD
TAFALO
TAF AMD
KALO 220200Z 2202/2224 16004KT P6SM SCT090 BKN110
     FM220600 31004KT P6SM SCT011 OVC025
     FM221000 30006KT P6SM BKN040
     FM221200 32009KT P6SM SCT040
     FM221600 34013G19KT P6SM FEW060=

USA.gov is the U.S. government's official web portal to all federal, state and local government web resources and services.